SCP
1 1 1 2 2 3 3 3 2 2 2 2 3 3 3 3 2 2 2 1 2 1 1 1 1 1 1 1 1 1 1 1 1 1 1 0 0 1 1 1 1 1 1
1 1 1 2 2 3 3 2 2 2 2 2 2 3 3 3 3 2 2 2 2 2 1 1 1 1 1 1 1 1 1 1 1 1 0 0 0 1 1 1 1 1 1
1 1 1 2 2 2 2 2 2 2 2 2 2 2 3 3 3 3 2 2 2 2 1 1 1 1 1 1 1 1 1 1 1 1 0 0 0 1 1 1 1 1 1
1 1 1 2 2 3 2 2 2 2 1 2 2 2 2 3 3 3 2 2 2 2 2 1 1 1 1 1 1 2 2 1 1 1 0 0 0 1 1 1 1 1 1
1 1 1 2 3 3 3 2 2 2 1 1 2 2 2 2 3 3 2 2 2 2 2 2 1 1 1 2 2 2 2 1 1 1 0 0 0 1 1 1 1 1 1
1 1 2 2 3 3 3 2 2 2 2 2 2 2 2 2 2 3 2 2 2 2 2 2 2 2 2 2 2 1 1 1 1 1 0 0 1 1 1 1 1 0 0
3 3 3 3 3 3 3 2 2 2 2 2 2 2 2 2 2 2 2 2 3 3 2 2 2 2 2 1 1 1 1 1 1 0 0 0 1 1 1 1 1 1 1
4 4 4 3 3 3 3 2 2 2 2 2 2 2 2 2 2 2 2 2 2 3 2 2 2 2 1 1 1 1 1 1 1 0 0 0 1 1 1 1 1 1 1
5 4 4 3 3 3 3 2 2 2 1 1 1 2 2 2 2 2 2 2 2 2 2 2 2 1 1 1 1 1 1 1 1 0 0 0 1 1 2 2 1 1 1
5 4 4 3 3 3 3 2 2 2 1 1 1 2 2 2 2 2 2 2 2 2 2 1 1 1 1 1 1 1 1 1 1 0 0 1 1 2 2 2 1 1 1
4 4 3 3 3 3 3 2 2 2 1 1 1 2 2 2 2 2 2 2 1 1 1 1 1 1 1 1 1 1 1 1 1 0 0 1 1 2 1 1 1 1 1
3 3 3 3 3 3 3 3 2 2 1 1 1 1 1 1 2 2 2 2 1 1 1 1 1 1 1 1 1 1 1 1 1 0 1 1 2 2 1 1 1 1 1
3 3 3 3 3 3 3 3 2 2 2 2 1 1 1 1 1 2 2 2 2 2 2 2 2 2 2 2 1 1 1 1 1 0 1 2 2 2 1 1 1 1 1
4 3 3 3 3 3 3 3 3 2 2 2 2 2 2 2 2 2 2 2 2 2 2 2 2 2 2 2 2 1 1 1 1 1 1 2 2 2 1 1 1 1 1
4 4 3 3 4 4 4 4 4 3 3 2 2 2 2 2 2 2 2 2 2 2 2 2 2 3 3 2 2 2 1 1 1 1 1 2 2 2 2 2 2 2 1
5 4 4 4 4 4 4 5 5 4 4 3 3 2 2 2 1 2 2 2 2 2 2 2 2 3 3 3 3 2 2 2 1 1 1 2 2 2 2 2 2 2 2
6 5 5 5 5 4 4 5 5 5 4 4 3 2 2 2 2 1 1 1 1 1 2 2 2 2 3 3 3 3 3 2 2 1 1 1 2 2 2 3 3 2 2
6 6 6 6 5 4 4 5 5 5 5 4 3 3 2 2 2 2 1 1 1 1 1 1 1 2 2 3 3 3 2 2 2 1 1 1 2 2 3 3 3 3 3
7 7 7 6 6 5 5 5 5 5 5 5 4 3 3 2 2 2 1 1 1 1 1 1 1 1 1 2 2 2 1 1 1 1 1 1 1 2 2 3 3 3 3
8 8 7 7 6 6 6 6 6 5 5 5 4 3 3 3 3 2 1 1 1 1 1 1 1 1 1 1 1 1 1 1 1 1 1 1 1 2 2 2 3 3 3
8 8 8 8 7 6 6 6 6 5 5 4 4 3 3 3 3 2 2 1 1 1 1 1 1 1 1 1 1 1 0 0 0 0 0 1 1 2 2 2 2 2 2
8 8 8 9 8 8 7 7 7 6 6 5 4 4 3 4 3 3 2 2 1 1 1 1 1 1 1 1 1 1 1 1 0 0 1 1 1 1 2 2 2 2 2
7 7 7 9 10 9 8 8 8 8 7 7 6 5 5 4 4 3 3 2 2 2 1 1 1 1 1 1 1 1 1 1 1 1 1 1 1 1 1 1 2 2 1
6 6 6 8 11 11 11 11 10 10 9 8 8 7 6 5 5 4 3 3 3 3 2 2 1 1 1 1 2 2 2 2 2 1 1 1 1 1 1 1 2 2 2
6 6 5 7 10 13 15 15 13 11 10 9 8 7 7 7 6 5 5 4 4 3 3 2 2 2 2 2 2 2 2 2 2 2 1 1 1 1 1 1 1 2 2
7 6 5 6 8 14 17 18 15 13 10 9 8 7 7 7 7 6 5 5 4 3 3 2 2 2 2 2 2 2 2 2 2 2 1 1 1 1 1 1 1 2 2
Wind_Speed
6 6 12 12 13 13 13 13 13 12 12 12 12 12 12 13 12 13 13 13 13 13 12 12 12 12 12 12 12 12 12 11 11 11 12 12 12 12 11 11 10 7 11
10 9 13 13 13 13 13 13 12 12 12 12 12 12 12 12 12 12 12 12 12 12 12 11 11 11 11 11 11 11 11 10 10 10 11 10 11 11 11 11 10 7 11
12 9 12 14 13 13 13 13 12 12 12 12 12 11 11 11 11 11 11 11 11 11 11 10 10 10 10 9 9 10 10 9 9 9 8 4 6 10 10 10 11 10 10
13 9 10 14 14 14 13 13 12 12 12 12 11 11 11 10 10 11 11 11 11 10 10 10 10 9 9 8 8 8 9 9 8 8 4 3 4 9 9 9 10 10 9
10 8 11 15 14 14 13 13 12 12 11 11 11 11 11 10 10 10 10 10 10 10 10 9 9 8 7 6 6 7 7 8 7 6 4 3 3 8 9 9 9 9 9
10 9 11 15 14 14 13 13 12 12 11 11 10 10 10 10 10 10 10 10 10 10 9 9 8 7 6 5 5 6 7 7 6 3 3 3 3 7 8 8 9 9 9
11 8 10 15 14 14 13 13 12 12 11 10 10 10 10 10 9 10 10 9 9 9 9 8 8 6 5 5 5 6 6 6 5 3 3 3 4 7 8 8 8 8 9
13 10 10 15 14 14 13 13 12 11 10 10 9 10 10 9 9 9 9 9 8 8 8 7 6 5 4 4 5 5 5 5 5 4 3 3 5 7 8 8 8 8 9
11 9 7 8 10 13 13 12 11 11 10 9 9 9 9 9 9 9 9 8 7 7 6 6 5 5 4 4 4 5 5 6 3 3 4 3 6 7 8 8 8 8 9
9 8 7 7 6 6 8 12 11 11 10 9 8 9 9 9 8 8 7 7 7 7 6 5 5 4 3 3 4 5 6 5 3 3 2 3 7 8 8 8 8 8 8
9 6 6 7 6 6 6 9 9 9 9 8 7 8 7 3 4 4 6 6 7 6 5 4 3 3 2 3 4 5 4 2 3 2 2 5 8 8 7 7 8 8 8
9 8 7 7 7 6 6 5 3 4 4 4 3 3 2 2 2 4 5 5 5 5 4 3 3 2 2 1 2 4 2 3 3 2 3 7 9 9 8 7 7 8 8
10 9 8 7 7 7 4 4 2 2 2 3 3 3 3 2 1 1 1 1 1 2 1 1 1 1 1 1 1 1 2 2 2 2 4 8 9 9 9 8 8 8 9
9 9 8 8 7 6 5 4 4 3 3 2 3 4 3 2 2 2 1 1 1 0 1 0 1 1 1 1 2 2 3 3 3 2 4 8 8 10 9 9 8 8 9
8 8 8 8 8 7 5 4 5 3 4 3 3 3 4 3 3 2 1 1 1 1 1 1 1 1 1 1 2 3 3 3 4 3 2 8 9 9 9 9 8 8 8
9 8 7 8 8 7 6 5 4 4 4 3 3 3 4 3 3 2 2 1 1 1 1 1 1 1 0 1 1 2 3 3 4 4 3 5 9 9 9 9 8 8 8
10 8 8 8 8 7 6 5 5 4 4 4 3 4 4 3 3 3 2 1 1 1 1 1 1 1 1 1 1 1 2 3 3 4 4 3 4 8 9 9 8 8 8
9 8 8 8 7 7 5 4 4 4 4 4 3 3 4 4 4 3 2 1 1 1 1 1 1 1 1 1 0 0 1 2 3 3 3 3 3 3 6 9 9 8 8
10 9 8 7 6 6 5 4 4 3 4 3 3 3 3 4 4 3 2 1 2 2 1 1 1 1 1 0 0 0 0 1 2 3 3 4 4 3 3 6 9 9 9
9 8 8 7 6 5 4 3 3 3 2 2 2 2 3 3 3 3 2 2 2 2 1 1 1 1 1 1 0 1 1 1 1 1 3 3 3 4 4 4 4 6 9
8 8 7 7 5 4 4 4 4 3 2 2 2 3 3 3 3 3 2 2 2 2 1 1 1 1 0 1 2 2 2 2 0 1 1 1 2 3 3 3 3 3 3
9 9 8 8 7 5 4 4 3 3 2 2 2 2 3 3 3 4 3 2 2 2 2 1 1 1 0 1 2 1 2 3 2 1 1 1 2 1 2 4 3 3 3
9 10 9 8 7 5 4 3 3 2 2 1 1 1 2 3 3 3 4 3 2 2 2 1 1 2 1 1 1 3 2 2 2 2 1 1 1 1 2 3 4 3 4
10 9 9 9 8 6 6 5 5 4 3 3 3 2 2 3 3 3 3 3 3 2 2 2 2 2 2 1 1 1 2 3 2 1 2 2 2 2 3 2 3 3 3
9 9 9 8 7 7 7 7 6 4 3 2 2 3 2 2 3 3 3 3 3 2 2 2 1 1 1 2 1 1 1 0 1 2 2 2 2 2 2 3 2 2 3
8 8 8 8 7 7 7 6 7 6 5 4 4 4 2 1 1 2 3 3 3 2 2 2 2 1 1 2 1 1 2 2 2 2 2 2 2 2 2 2 2 2 3
Wind_Direction
154 160 139 127 120 117 114 111 110 111 107 105 105 105 107 108 108 110 114 118 117 115 115 114 114 112 112 113 113 112 112 118 123 123 128 131 133 135 134 128 125 116 120
152 154 139 130 124 120 116 113 111 111 110 110 109 109 108 110 111 114 116 118 120 119 117 115 115 114 113 113 113 113 114 118 124 124 125 131 134 137 136 134 132 127 126
143 146 140 133 128 123 119 115 113 113 112 111 112 111 112 113 114 117 119 119 122 124 122 120 119 117 114 112 112 117 118 118 123 125 122 118 128 136 136 136 135 135 131
143 143 141 137 131 127 123 121 119 117 115 114 114 116 117 118 118 120 121 120 120 124 125 125 122 121 118 117 118 121 120 116 119 124 119 117 126 135 137 138 141 143 142
139 142 144 139 135 131 128 127 126 124 121 118 117 118 120 121 121 121 122 122 123 125 126 127 125 127 124 124 121 120 120 116 118 120 120 123 123 133 139 141 144 147 148
141 144 145 140 138 136 133 131 129 128 126 124 121 121 123 124 125 125 125 125 126 129 130 130 130 132 134 134 128 127 125 119 119 115 121 131 135 141 139 142 147 150 148
145 147 147 143 141 141 139 135 131 128 127 128 128 127 128 128 131 131 130 130 132 135 138 139 140 142 142 139 138 137 129 127 125 122 132 139 146 147 145 148 150 151 151
146 146 147 147 144 144 142 139 136 133 129 129 134 133 133 133 136 137 138 138 140 141 144 146 147 152 154 150 149 147 140 135 124 126 137 151 158 157 154 155 155 156 156
141 143 146 149 148 148 146 142 140 138 136 135 139 140 138 137 139 143 147 147 149 150 156 160 161 165 166 161 155 149 143 146 130 142 148 152 163 164 161 156 159 159 161
138 144 148 148 147 147 148 148 147 146 145 145 145 144 144 144 144 149 152 157 160 164 170 172 176 181 185 185 180 171 159 151 141 146 147 160 166 168 165 161 163 163 163
140 146 151 153 150 149 151 155 154 154 154 154 154 150 147 139 141 150 152 157 166 170 173 174 185 205 216 213 201 186 170 146 146 152 162 164 164 165 166 163 164 167 166
155 159 161 161 160 156 158 149 150 155 155 154 146 146 136 134 148 149 156 158 160 166 174 185 203 236 240 207 198 188 159 154 157 167 174 169 167 168 167 162 162 165 165
160 160 162 162 161 161 154 148 152 150 148 152 153 151 144 136 142 146 125 151 151 156 176 215 260 289 256 179 180 170 157 158 160 178 179 176 174 170 166 165 165 164 162
152 161 159 159 160 163 151 155 157 157 157 163 165 158 147 143 149 154 151 162 152 145 180 239 259 263 254 179 176 171 162 163 166 178 185 178 175 169 167 169 171 169 168
150 157 161 159 158 159 153 160 159 165 164 163 154 157 153 150 159 160 166 174 182 178 187 201 218 203 215 187 176 162 159 163 166 171 176 175 170 168 169 169 173 174 176
156 161 167 161 159 155 158 159 160 163 161 156 152 158 157 152 152 152 155 160 171 187 190 179 173 164 174 131 144 161 161 159 165 166 167 173 175 175 177 176 178 180 182
159 161 166 162 159 158 161 164 155 161 157 157 159 158 154 153 158 148 147 160 175 167 144 126 104 82 74 90 105 149 157 163 166 169 171 172 183 189 188 187 187 187 191
148 151 158 157 156 155 155 154 148 152 151 155 156 154 157 161 157 143 148 159 157 131 112 116 96 78 46 63 67 136 158 167 177 177 173 177 182 192 201 201 198 195 198
150 152 152 145 153 156 150 142 142 139 145 151 150 151 160 161 155 140 141 143 130 115 109 126 104 126 119 103 239 285 167 189 187 180 181 189 191 191 194 203 204 202 204
148 149 148 143 151 148 139 127 128 132 145 147 152 156 151 148 146 139 130 125 121 107 91 82 97 94 129 165 119 359 312 270 208 178 188 189 193 197 198 204 203 210 211
141 145 152 148 155 147 145 149 152 157 166 164 167 159 152 151 151 146 140 133 126 123 135 125 111 83 37 90 76 15 349 338 340 243 206 174 187 196 186 198 202 206 215
155 155 156 159 163 163 165 165 161 153 160 166 164 161 158 156 160 159 153 152 152 135 108 106 101 102 1 107 131 96 5 349 338 291 233 205 216 202 195 204 202 205 214
161 167 166 169 168 172 163 137 119 104 95 107 158 179 184 166 164 156 159 158 160 150 152 164 145 141 168 322 141 145 152 224 299 317 286 236 223 212 224 210 202 209 215
174 170 167 168 167 175 165 156 156 158 170 188 186 186 190 178 172 168 165 161 163 158 159 182 162 165 159 230 285 200 180 169 170 299 317 289 254 237 234 226 209 207 210
170 168 167 165 171 177 172 171 167 172 184 177 167 167 179 181 177 172 168 166 169 168 171 174 160 159 174 189 202 206 186 168 171 172 262 291 304 268 230 213 201 205 206
165 163 163 167 177 176 171 170 172 176 175 164 173 179 185 187 187 178 173 177 179 172 175 182 175 178 204 200 198 180 172 175 195 179 217 248 265 274 256 229 214 216 213